MXY743 KSFB-KRDU

Flight info

Callsign MXY743
Flight time 1h 23m
Altitude 37000
Route ZERBO Q87 REDFH DMSTR2
Aircraft BCS3/M-SDGILORVWXY/SB1

Departure

Time 2026-05-06 22:21
Airport Orlando Sanford International Airport (KSFB)

Arrival

Time 2026-05-06 23:45
Airport Raleigh-Durham International Airport (KRDU)
Time Latitude Longitude Altitude Speed Heading
2026-05-06 21:49 28.77699 -81.24315 62 ft 0 kts 232°
2026-05-06 22:06 28.77699 -81.24314 62 ft 0 kts 232°
2026-05-06 22:07 28.77701 -81.24312 62 ft 0 kts 231°
2026-05-06 22:10 28.77709 -81.24301 53 ft 2 kts 232°
2026-05-06 22:10 28.77719 -81.24286 56 ft 2 kts 231°
2026-05-06 22:11 28.77725 -81.24278 56 ft 2 kts 232°
2026-05-06 22:11 28.77715 -81.24293 54 ft 4 kts 232°
2026-05-06 22:11 28.77709 -81.24302 53 ft 0 kts 232°
2026-05-06 22:12 28.77718 -81.24289 54 ft 2 kts 232°
2026-05-06 22:13 28.77728 -81.24274 56 ft 2 kts 232°
2026-05-06 22:13 28.77737 -81.24261 55 ft 2 kts 237°
2026-05-06 22:13 28.77743 -81.24250 53 ft 2 kts 239°
2026-05-06 22:13 28.77749 -81.24238 53 ft 2 kts 239°
2026-05-06 22:14 28.77755 -81.24226 54 ft 2 kts 239°
2026-05-06 22:14 28.77761 -81.24215 56 ft 2 kts 252°
2026-05-06 22:14 28.77763 -81.24201 60 ft 0 kts 274°
2026-05-06 22:16 28.77764 -81.24218 54 ft 9 kts 272°
2026-05-06 22:16 28.77764 -81.24344 61 ft 23 kts 270°
2026-05-06 22:16 28.77763 -81.24535 61 ft 22 kts 270°
2026-05-06 22:17 28.77763 -81.24690 64 ft 17 kts 271°
2026-05-06 22:17 28.77818 -81.24801 56 ft 18 kts 313°
2026-05-06 22:17 28.77909 -81.24908 59 ft 20 kts 314°
2026-05-06 22:17 28.78009 -81.25028 63 ft 22 kts 314°
2026-05-06 22:18 28.78065 -81.25182 65 ft 20 kts 272°
2026-05-06 22:18 28.78071 -81.25261 66 ft 5 kts 297°
2026-05-06 22:18 28.78081 -81.25269 61 ft 0 kts 333°
2026-05-06 22:18 28.78110 -81.25269 65 ft 5 kts
2026-05-06 22:19 28.78117 -81.25269 65 ft 0 kts
2026-05-06 22:20 28.78125 -81.25268 63 ft 5 kts
2026-05-06 22:20 28.78176 -81.25206 64 ft 19 kts 81°
2026-05-06 22:21 28.78175 -81.24823 59 ft 85 kts 90°
2026-05-06 22:21 28.78177 -81.23780 120 ft 167 kts 90°
2026-05-06 22:21 28.78250 -81.22388 638 ft 184 kts 84°
2026-05-06 22:21 28.78473 -81.20913 1300 ft 193 kts 77°
2026-05-06 22:22 28.78809 -81.19506 1844 ft 182 kts 71°
2026-05-06 22:22 28.79665 -81.18462 2280 ft 191 kts 23°
2026-05-06 22:22 28.80988 -81.18418 2680 ft 199 kts 339°
2026-05-06 22:22 28.82026 -81.19408 2968 ft 196 kts 310°
2026-05-06 22:23 28.82847 -81.20619 3319 ft 195 kts 303°
2026-05-06 22:23 28.83576 -81.21910 3695 ft 193 kts 299°
2026-05-06 22:23 28.84242 -81.23252 4056 ft 195 kts 293°
2026-05-06 22:23 28.84850 -81.24627 4219 ft 195 kts 304°
2026-05-06 22:24 28.85787 -81.25741 4505 ft 194 kts 317°
2026-05-06 22:24 28.86884 -81.26688 4778 ft 201 kts 323°
2026-05-06 22:24 28.88074 -81.27519 4917 ft 201 kts 328°
2026-05-06 22:24 28.89452 -81.28354 5034 ft 255 kts 333°
2026-05-06 22:25 28.91224 -81.29024 5185 ft 270 kts 345°
2026-05-06 22:25 28.93070 -81.29414 5330 ft 270 kts 350°
2026-05-06 22:25 28.94933 -81.29684 5471 ft 270 kts 352°
2026-05-06 22:25 28.96813 -81.29895 5784 ft 272 kts 353°
2026-05-06 22:26 28.98693 -81.30075 6663 ft 269 kts 353°
2026-05-06 22:26 29.00550 -81.30238 7902 ft 265 kts 353°
2026-05-06 22:26 29.02379 -81.30393 9367 ft 263 kts 353°
2026-05-06 22:26 29.04214 -81.30544 10674 ft 266 kts 353°
2026-05-06 22:27 29.06083 -81.30694 11828 ft 273 kts 353°
2026-05-06 22:27 29.07987 -81.30846 12909 ft 281 kts 354°
2026-05-06 22:27 29.09966 -81.31003 13981 ft 289 kts 354°
2026-05-06 22:27 29.12001 -81.31159 14964 ft 296 kts 353°
2026-05-06 22:28 29.14077 -81.31316 15986 ft 302 kts 353°
2026-05-06 22:28 29.15471 -81.31420 16683 ft 304 kts 353°
2026-05-06 22:28 29.18296 -81.31630 18105 ft 309 kts 352°
2026-05-06 22:28 29.20448 -81.31789 19061 ft 311 kts 352°
2026-05-06 22:29 29.22619 -81.31948 19977 ft 314 kts 351°
2026-05-06 22:29 29.24813 -81.32108 20892 ft 317 kts 351°
2026-05-06 22:29 29.26301 -81.32211 21485 ft 319 kts 350°
2026-05-06 22:29 29.28537 -81.32362 22369 ft 323 kts 350°
2026-05-06 22:30 29.30792 -81.32508 23203 ft 326 kts 350°
2026-05-06 22:30 29.33027 -81.32648 23576 ft 325 kts 349°
2026-05-06 22:30 29.35291 -81.32788 23802 ft 328 kts 349°
2026-05-06 22:30 29.37588 -81.32931 23894 ft 339 kts 349°
2026-05-06 22:31 29.40030 -81.33097 24030 ft 362 kts 350°
2026-05-06 22:31 29.42563 -81.33263 24581 ft 371 kts 350°
2026-05-06 22:31 29.45201 -81.33433 24892 ft 388 kts 350°
2026-05-06 22:31 29.47949 -81.33607 25226 ft 403 kts 351°
2026-05-06 22:32 29.50790 -81.33782 25629 ft 415 kts 351°
2026-05-06 22:32 29.53697 -81.33956 26207 ft 421 kts 351°
2026-05-06 22:32 29.56628 -81.34123 27035 ft 420 kts 351°
2026-05-06 22:32 29.59526 -81.34281 28120 ft 413 kts 351°
2026-05-06 22:33 29.62357 -81.34428 29394 ft 401 kts 351°
2026-05-06 22:33 29.65107 -81.34568 30604 ft 390 kts 350°
2026-05-06 22:33 29.67777 -81.34704 31663 ft 378 kts 349°
2026-05-06 22:33 29.70371 -81.34837 32673 ft 368 kts 349°
2026-05-06 22:34 29.72900 -81.34970 33622 ft 360 kts 349°
2026-05-06 22:34 29.75381 -81.35106 34414 ft 354 kts 348°
2026-05-06 22:34 29.77840 -81.35247 34836 ft 358 kts 348°
2026-05-06 22:34 29.80376 -81.35412 34861 ft 372 kts 348°
2026-05-06 22:35 29.83009 -81.35592 34909 ft 386 kts 348°
2026-05-06 22:35 29.85733 -81.35776 35036 ft 397 kts 348°
2026-05-06 22:35 29.88515 -81.35954 35332 ft 403 kts 349°
2026-05-06 22:35 29.91323 -81.36122 35843 ft 403 kts 349°
2026-05-06 22:36 29.94104 -81.36277 36433 ft 392 kts 348°
2026-05-06 22:36 29.96826 -81.36421 36743 ft 392 kts 348°
2026-05-06 22:36 29.99569 -81.36578 36905 ft 398 kts 348°
2026-05-06 22:36 30.02318 -81.36742 36985 ft 403 kts 348°
2026-05-06 22:37 30.07931 -81.37077 37041 ft 404 kts 348°
2026-05-06 22:37 30.13545 -81.37406 37053 ft 404 kts 348°
2026-05-06 22:38 30.19154 -81.37739 37036 ft 403 kts 348°
2026-05-06 22:38 30.24748 -81.38074 37035 ft 403 kts 348°
2026-05-06 22:39 30.30340 -81.38409 37042 ft 402 kts 348°
2026-05-06 22:39 30.35926 -81.38744 37040 ft 402 kts 348°
2026-05-06 22:40 30.41512 -81.39079 37041 ft 402 kts 348°
2026-05-06 22:40 30.47092 -81.39398 37039 ft 401 kts 348°
2026-05-06 22:41 30.55459 -81.39848 37050 ft 401 kts 348°
2026-05-06 22:42 30.61038 -81.40144 37055 ft 401 kts 348°
2026-05-06 22:42 30.66573 -81.40437 37050 ft 401 kts 348°
2026-05-06 22:43 30.72140 -81.40733 37052 ft 400 kts 348°
2026-05-06 22:43 30.77703 -81.41029 37044 ft 400 kts 348°
2026-05-06 22:44 30.83266 -81.41324 37034 ft 400 kts 348°
2026-05-06 22:44 30.88821 -81.41619 37031 ft 399 kts 348°
2026-05-06 22:45 30.94372 -81.41915 37029 ft 399 kts 348°
2026-05-06 22:45 30.99922 -81.42210 37034 ft 399 kts 348°
2026-05-06 22:46 31.05463 -81.42506 37038 ft 399 kts 348°
2026-05-06 22:46 31.11002 -81.42803 37030 ft 398 kts 348°
2026-05-06 22:47 31.16536 -81.43099 37038 ft 398 kts 348°
2026-05-06 22:47 31.22042 -81.43335 37044 ft 404 kts 356°
2026-05-06 22:47 31.24896 -81.42613 37061 ft 422 kts
2026-05-06 22:48 31.27652 -81.41497 37051 ft 427 kts 10°
2026-05-06 22:48 31.33189 -81.38880 37041 ft 430 kts 12°
2026-05-06 22:49 31.38680 -81.36073 37042 ft 431 kts 13°
2026-05-06 22:49 31.44153 -81.33184 37041 ft 432 kts 13°
2026-05-06 22:50 31.49613 -81.30259 37042 ft 432 kts 14°
2026-05-06 22:50 31.55068 -81.27316 37025 ft 431 kts 14°
2026-05-06 22:51 31.60518 -81.24363 37031 ft 431 kts 14°
2026-05-06 22:51 31.65965 -81.21407 37030 ft 431 kts 14°
2026-05-06 22:52 31.71404 -81.18436 37021 ft 431 kts 14°
2026-05-06 22:52 31.76842 -81.15457 37010 ft 431 kts 14°
2026-05-06 22:53 31.82273 -81.12481 37008 ft 431 kts 14°
2026-05-06 22:53 31.87703 -81.09506 36997 ft 430 kts 14°
2026-05-06 22:54 31.93130 -81.06532 37000 ft 430 kts 14°
2026-05-06 22:54 31.98546 -81.03557 36995 ft 429 kts 14°
2026-05-06 22:55 32.03951 -81.00549 37000 ft 429 kts 15°
2026-05-06 22:55 32.09347 -80.97532 37004 ft 429 kts 15°
2026-05-06 22:56 32.14737 -80.94513 37012 ft 429 kts 15°
2026-05-06 22:56 32.20083 -80.91515 37036 ft 428 kts 15°
2026-05-06 22:57 32.25457 -80.88498 37039 ft 427 kts 15°
2026-05-06 22:57 32.30823 -80.85483 37038 ft 426 kts 15°
2026-05-06 22:58 32.36182 -80.82469 37028 ft 426 kts 15°
2026-05-06 22:58 32.41535 -80.79456 37024 ft 425 kts 15°
2026-05-06 22:59 32.46873 -80.76445 37019 ft 425 kts 15°
2026-05-06 22:59 32.52199 -80.73435 37019 ft 424 kts 15°
2026-05-06 23:00 32.57515 -80.70428 37025 ft 423 kts 15°
2026-05-06 23:00 32.62791 -80.67440 37022 ft 422 kts 15°
2026-05-06 23:01 32.68091 -80.64432 37026 ft 422 kts 15°
2026-05-06 23:01 32.73370 -80.61363 37023 ft 422 kts 15°
2026-05-06 23:02 32.78627 -80.58263 37026 ft 422 kts 15°
2026-05-06 23:02 32.83874 -80.55151 37023 ft 421 kts 15°
2026-05-06 23:03 32.89119 -80.52033 37025 ft 421 kts 15°
2026-05-06 23:03 32.94355 -80.48913 37022 ft 421 kts 15°
2026-05-06 23:04 32.99581 -80.45794 37005 ft 418 kts 15°
2026-05-06 23:04 33.04765 -80.42691 37003 ft 417 kts 15°
2026-05-06 23:05 33.09972 -80.39584 37003 ft 419 kts 15°
2026-05-06 23:05 33.15192 -80.36464 36998 ft 420 kts 15°
2026-05-06 23:06 33.20378 -80.33357 36989 ft 420 kts 15°
2026-05-06 23:06 33.25606 -80.30221 37000 ft 421 kts 15°
2026-05-06 23:07 33.30843 -80.27075 36992 ft 421 kts 15°
2026-05-06 23:07 33.36079 -80.23922 36982 ft 422 kts 15°
2026-05-06 23:08 33.41317 -80.20765 36983 ft 422 kts 15°
2026-05-06 23:08 33.46564 -80.17597 36984 ft 423 kts 15°
2026-05-06 23:09 33.51816 -80.14421 36980 ft 422 kts 15°
2026-05-06 23:09 33.57064 -80.11242 36981 ft 423 kts 15°
2026-05-06 23:10 33.62279 -80.08078 36976 ft 423 kts 15°
2026-05-06 23:10 33.67529 -80.04893 36984 ft 423 kts 15°
2026-05-06 23:11 33.72783 -80.01703 36990 ft 423 kts 15°
2026-05-06 23:11 33.78043 -79.98505 36993 ft 423 kts 15°
2026-05-06 23:12 33.83297 -79.95305 36985 ft 423 kts 15°
2026-05-06 23:12 33.88558 -79.92098 36988 ft 424 kts 15°
2026-05-06 23:13 33.93814 -79.88888 36984 ft 424 kts 15°
2026-05-06 23:13 33.99080 -79.85667 36980 ft 425 kts 15°
2026-05-06 23:14 34.04343 -79.82442 36979 ft 423 kts 15°
2026-05-06 23:14 34.06927 -79.80842 36982 ft 411 kts 15°
2026-05-06 23:14 34.09456 -79.79275 36985 ft 407 kts 15°
2026-05-06 23:15 34.14423 -79.76211 36394 ft 395 kts 15°
2026-05-06 23:15 34.16844 -79.74730 35575 ft 396 kts 15°
2026-05-06 23:15 34.19313 -79.73229 34709 ft 399 kts 16°
2026-05-06 23:15 34.21809 -79.71716 33765 ft 404 kts 17°
2026-05-06 23:16 34.24337 -79.70183 32654 ft 409 kts 17°
2026-05-06 23:16 34.26892 -79.68626 31660 ft 412 kts 18°
2026-05-06 23:16 34.29464 -79.67050 30568 ft 417 kts 19°
2026-05-06 23:16 34.32064 -79.65447 29449 ft 421 kts 19°
2026-05-06 23:17 34.34674 -79.63854 28406 ft 417 kts 15°
2026-05-06 23:17 34.37384 -79.62813 27569 ft 403 kts
2026-05-06 23:17 34.40085 -79.62082 26876 ft 393 kts
2026-05-06 23:17 34.42739 -79.61466 26266 ft 384 kts
2026-05-06 23:18 34.45339 -79.60917 25648 ft 376 kts
2026-05-06 23:18 34.47904 -79.60408 24998 ft 370 kts
2026-05-06 23:18 34.50439 -79.59929 24297 ft 368 kts
2026-05-06 23:18 34.52966 -79.59468 23550 ft 367 kts
2026-05-06 23:19 34.55497 -79.59019 22634 ft 368 kts
2026-05-06 23:19 34.58029 -79.58577 21785 ft 370 kts
2026-05-06 23:19 34.59728 -79.58286 21440 ft 371 kts
2026-05-06 23:19 34.62260 -79.57847 21197 ft 365 kts
2026-05-06 23:20 34.64765 -79.57412 21085 ft 363 kts
2026-05-06 23:20 34.67265 -79.56978 21031 ft 363 kts
2026-05-06 23:20 34.69767 -79.56545 21007 ft 362 kts
2026-05-06 23:20 34.72264 -79.56113 20986 ft 363 kts
2026-05-06 23:21 34.74768 -79.55680 20975 ft 363 kts
2026-05-06 23:21 34.77268 -79.55247 20982 ft 363 kts
2026-05-06 23:21 34.79767 -79.54815 20981 ft 363 kts
2026-05-06 23:21 34.82309 -79.54380 20983 ft 381 kts
2026-05-06 23:22 34.84959 -79.53932 20978 ft 385 kts
2026-05-06 23:22 34.87614 -79.53473 20825 ft 387 kts
2026-05-06 23:22 34.90275 -79.53007 20552 ft 384 kts
2026-05-06 23:22 34.92912 -79.52538 20306 ft 382 kts
2026-05-06 23:23 34.95540 -79.52061 20054 ft 382 kts
2026-05-06 23:23 34.98166 -79.51578 19719 ft 381 kts
2026-05-06 23:23 35.00781 -79.51088 19388 ft 379 kts
2026-05-06 23:23 35.03377 -79.50596 19062 ft 377 kts
2026-05-06 23:24 35.05969 -79.50099 18735 ft 376 kts
2026-05-06 23:24 35.08546 -79.49618 18417 ft 374 kts
2026-05-06 23:24 35.11085 -79.49195 18084 ft 372 kts
2026-05-06 23:24 35.13652 -79.48802 17720 ft 371 kts
2026-05-06 23:25 35.16206 -79.48431 17391 ft 369 kts
2026-05-06 23:25 35.18745 -79.48074 17032 ft 367 kts
2026-05-06 23:25 35.21278 -79.47726 16677 ft 366 kts
2026-05-06 23:25 35.23802 -79.47383 16327 ft 364 kts
2026-05-06 23:26 35.26317 -79.47044 15978 ft 363 kts
2026-05-06 23:26 35.28826 -79.46705 15638 ft 362 kts
2026-05-06 23:26 35.31324 -79.46367 15302 ft 361 kts
2026-05-06 23:26 35.33816 -79.45981 14964 ft 363 kts
2026-05-06 23:27 35.36139 -79.44697 14643 ft 374 kts 32°
2026-05-06 23:27 35.38155 -79.42670 14306 ft 375 kts 38°
2026-05-06 23:27 35.40091 -79.40538 13981 ft 373 kts 39°
2026-05-06 23:27 35.42008 -79.38404 13643 ft 372 kts 39°
2026-05-06 23:28 35.43932 -79.36297 13274 ft 370 kts 38°
2026-05-06 23:28 35.45869 -79.34237 12914 ft 367 kts 37°
2026-05-06 23:28 35.47817 -79.32228 12555 ft 365 kts 37°
2026-05-06 23:28 35.49780 -79.30261 12202 ft 363 kts 36°
2026-05-06 23:29 35.51765 -79.28362 11854 ft 361 kts 32°
2026-05-06 23:29 35.53827 -79.26627 11514 ft 358 kts 31°
2026-05-06 23:29 35.55841 -79.24843 11232 ft 356 kts 36°
2026-05-06 23:29 35.57732 -79.22884 11109 ft 357 kts 39°
2026-05-06 23:30 35.59526 -79.20772 11058 ft 357 kts 44°
2026-05-06 23:30 35.61230 -79.18607 11011 ft 357 kts 44°
2026-05-06 23:30 35.62892 -79.16331 11006 ft 359 kts 48°
2026-05-06 23:30 35.64472 -79.13949 11011 ft 359 kts 50°
2026-05-06 23:31 35.66015 -79.11530 10974 ft 359 kts 50°
2026-05-06 23:31 35.67555 -79.09084 10659 ft 362 kts 51°
2026-05-06 23:31 35.69083 -79.06649 10327 ft 358 kts 51°
2026-05-06 23:31 35.70607 -79.04223 9991 ft 358 kts 51°
2026-05-06 23:32 35.72130 -79.01814 9652 ft 356 kts 50°
2026-05-06 23:32 35.73648 -78.99426 9291 ft 354 kts 51°
2026-05-06 23:32 35.75165 -78.97048 8907 ft 355 kts 49°
2026-05-06 23:32 35.76684 -78.94661 8569 ft 351 kts 49°
2026-05-06 23:33 35.78180 -78.92375 8266 ft 333 kts 46°
2026-05-06 23:33 35.79690 -78.90317 8125 ft 317 kts 43°
2026-05-06 23:33 35.81249 -78.88481 7956 ft 301 kts 34°
2026-05-06 23:33 35.82932 -78.87086 7826 ft 278 kts 21°
2026-05-06 23:34 35.84700 -78.86508 7965 ft 258 kts 348°
2026-05-06 23:34 35.86408 -78.87004 7930 ft 251 kts 335°
2026-05-06 23:34 35.88150 -78.87296 7786 ft 261 kts 358°
2026-05-06 23:34 35.89962 -78.86899 7611 ft 267 kts
2026-05-06 23:35 35.91757 -78.86380 7375 ft 264 kts
2026-05-06 23:35 35.93542 -78.85855 7128 ft 264 kts
2026-05-06 23:35 35.95316 -78.85303 6821 ft 262 kts 10°
2026-05-06 23:35 35.96973 -78.84409 6635 ft 261 kts 27°
2026-05-06 23:36 35.98406 -78.83027 6314 ft 268 kts 39°
2026-05-06 23:36 35.99705 -78.81333 5939 ft 267 kts 46°
2026-05-06 23:36 36.00886 -78.79588 5715 ft 258 kts 48°
2026-05-06 23:36 36.01955 -78.77873 5442 ft 248 kts 51°
2026-05-06 23:37 36.02957 -78.76206 5128 ft 242 kts 51°
2026-05-06 23:37 36.03947 -78.74542 4788 ft 238 kts 51°
2026-05-06 23:37 36.04923 -78.72908 4443 ft 235 kts 52°
2026-05-06 23:37 36.05890 -78.71287 4092 ft 233 kts 51°
2026-05-06 23:38 36.06846 -78.69677 3737 ft 231 kts 52°
2026-05-06 23:38 36.07800 -78.68087 3388 ft 230 kts 52°
2026-05-06 23:38 36.08654 -78.66429 3046 ft 229 kts 69°
2026-05-06 23:38 36.08809 -78.64602 3089 ft 199 kts 108°
2026-05-06 23:39 36.08186 -78.63153 2976 ft 191 kts 139°
2026-05-06 23:39 36.07135 -78.62318 2960 ft 178 kts 175°
2026-05-06 23:39 36.05931 -78.62411 3063 ft 174 kts 200°
2026-05-06 23:39 36.04744 -78.62803 3131 ft 175 kts 201°
2026-05-06 23:40 36.03628 -78.63226 3122 ft 161 kts 205°
2026-05-06 23:40 36.02584 -78.63697 3078 ft 163 kts 207°
2026-05-06 23:40 36.01567 -78.64235 3045 ft 155 kts 211°
2026-05-06 23:40 36.00611 -78.64856 2874 ft 156 kts 216°
2026-05-06 23:41 35.99700 -78.65580 2717 ft 155 kts 220°
2026-05-06 23:41 35.98860 -78.66396 2616 ft 153 kts 224°
2026-05-06 23:41 35.98071 -78.67242 2540 ft 148 kts 226°
2026-05-06 23:41 35.97332 -78.68104 2441 ft 149 kts 227°
2026-05-06 23:42 35.96576 -78.69016 2283 ft 152 kts 228°
2026-05-06 23:42 35.95860 -78.69973 2087 ft 150 kts 230°
2026-05-06 23:42 35.95146 -78.70874 1957 ft 144 kts 227°
2026-05-06 23:42 35.94402 -78.71707 1701 ft 145 kts 226°
2026-05-06 23:43 35.93678 -78.72561 1514 ft 142 kts 227°
2026-05-06 23:43 35.92964 -78.73433 1348 ft 146 kts 227°
2026-05-06 23:43 35.92261 -78.74304 1178 ft 144 kts 226°
2026-05-06 23:43 35.91758 -78.74911 1063 ft 142 kts 224°
2026-05-06 23:44 35.91087 -78.75735 920 ft 136 kts 225°
2026-05-06 23:44 35.90415 -78.76551 746 ft 136 kts 224°
2026-05-06 23:44 35.89714 -78.77401 571 ft 146 kts 225°
2026-05-06 23:44 35.89016 -78.78262 404 ft 135 kts 225°
2026-05-06 23:45 35.88552 -78.78828 399 ft 57 kts 227°
2026-05-06 23:45 35.88357 -78.79057 395 ft 24 kts 207°
2026-05-06 23:45 35.88257 -78.79045 395 ft 9 kts 139°
2026-05-06 23:45 35.88239 -78.79024 394 ft 0 kts 136°
2026-05-06 23:47 35.88200 -78.78988 396 ft 9 kts 166°
2026-05-06 23:47 35.88154 -78.79022 395 ft 7 kts 226°
2026-05-06 23:47 35.88122 -78.79063 393 ft 9 kts 227°
2026-05-06 23:47 35.88108 -78.79081 393 ft 0 kts 228°
2026-05-06 23:48 35.88108 -78.79082 393 ft 1 kts 228°
2026-05-06 23:48 35.88058 -78.79084 392 ft 14 kts 151°
2026-05-06 23:48 35.87998 -78.79015 395 ft 9 kts 134°
2026-05-06 23:48 35.87972 -78.78997 395 ft 1 kts 204°
2026-05-06 23:49 35.87966 -78.79024 395 ft 5 kts 254°
2026-05-06 23:49 35.87959 -78.79055 392 ft 2 kts 254°
2026-05-06 23:49 35.87958 -78.79056 392 ft 0 kts 254°